Tracking 22441 objects as of 28-Feb-2021
HD Live streaming from Space Station
objects crossing your sky now

DELTA 1 DEB

Track DELTA 1 DEB now!
10-day predictions


NORAD ID: 26829
Int'l Code: 1975-052KH
Perigee: 1,034.9 km
Apogee: 1,427.4 km
Inclination: 99.6 °
Period: 109.9 minutes
Semi major axis: 7602 km
RCS: 0.0065 m2 (small)
Launch date: June 12, 1975
Source: United States (US)
Launch site: AIR FORCE WESTERN TEST RANGE (AFWTR)

Note: This is SATELLITE DEBRIS
aabbcc
Your satellite tracking list
Your tracking list is empty




NASA's NSSDC Master Catalog

Two Line Element Set (TLE):
1 26829U 75052KH  21059.46889931  .00000171  00000-0  50790-3 0  9994
2 26829  99.5760  58.6775 0258101  58.6147  91.8604 13.09778421263002
Source of the keplerian elements: AFSPC